Zurück zum Katalog

SL-12 DEB

LostHEO
NORAD 29407·DEBRIS·🇷🇺 Russia

Gestartet May 31, 1989 von Baikonur Cosmodrome

Loading…

Nächste Überflüge (nächste 24 Stunden)

TLE

VeraltetSource: Space-Track

Epoche: May 5, 2021, 13:53 UTC

1 29407U 89039BK  21125.57882387 -.00000015  00000-0  00000+0 0  9996
2 29407  59.6897 278.2829 4198821 189.2938 159.6063  5.33600792263847

Verfolge SL-12 DEB in Echtzeit mit AllMySat

Download on the App Store